When you browse on this site, cookies collect data to enhance your experience and personalize the content and advertising you see.
Visit our Privacy Policy to learn more. By continuing to use the site, you agree to this use of cookies and data.
  • In Hungary
  • List of Countries
  • For 7 days
  • Water Temperature
  • Satellite Maps
  • Weather Map
  • News
  • Weather Widgets
  • user-avatar
    Login

    Hourly Weather Derventa

    Today, 22 February, Friday

    Time Temperature Precipitation Wind Pressure Humidity
    00:00 +9°C° 0.1 mm 1 mps 756 mmHg 65%
    01:00 +9°C° 0 mm 1 mps 755 mmHg 66%
    02:00 +9°C° 0.1 mm 1 mps 755 mmHg 68%
    03:00 +8°C° 0.1 mm 1 mps 754 mmHg 70%
    04:00 +7°C° 0.1 mm 0 mps 754 mmHg 72%
    05:00 +8°C° 0 mm 1 mps 754 mmHg 73%
    06:00 +8°C° 0 mm 1 mps 754 mmHg 74%
    07:00 +8°C° 0 mm 1 mps 753 mmHg 75%
    08:00 +8°C° 0.2 mm 2 mps 753 mmHg 74%
    09:00 +8°C° 0.2 mm 2 mps 753 mmHg 73%
    10:00 +9°C° 0.2 mm 3 mps 753 mmHg 72%
    11:00 +8°C° 0.5 mm 4 mps 753 mmHg 74%
    12:00 +8°C° 0.5 mm 4 mps 753 mmHg 77%
    13:00 +8°C° 0.5 mm 5 mps 753 mmHg 80%
    14:00 +8°C° 0.2 mm 5 mps 753 mmHg 77%
    15:00 +8°C° 0.2 mm 5 mps 753 mmHg 74%
    16:00 +9°C° 0.2 mm 6 mps 754 mmHg 72%
    17:00 +7°C° 0.3 mm 6 mps 755 mmHg 70%
    18:00 +4°C° 0.3 mm 7 mps 756 mmHg 68%
    19:00 +2°C° 0.3 mm 7 mps 757 mmHg 66%
    20:00 0°C° 0 mm 7 mps 758 mmHg 59%
    21:00 -1°C° 0 mm 6 mps 759 mmHg 53%
    22:00 -2°C° 0 mm 6 mps 761 mmHg 46%
    23:00 -2°C° 0 mm 5 mps 761 mmHg 49%

    Tomorrow, 23 February, Saturday

    Time Temperature Precipitation Wind Pressure Humidity
    00:00 -3°C° 0 mm 4 mps 762 mmHg 51%
    01:00 -4°C° 0 mm 4 mps 762 mmHg 54%
    02:00 -4°C° 0 mm 4 mps 762 mmHg 51%
    03:00 -6°C° 0 mm 5 mps 762 mmHg 48%
    04:00 -6°C° 0 mm 6 mps 762 mmHg 45%
    05:00 -6°C° 0 mm 6 mps 763 mmHg 45%
    06:00 -6°C° 0 mm 6 mps 763 mmHg 45%
    07:00 -7°C° 0 mm 7 mps 763 mmHg 45%
    08:00 -6°C° 0 mm 7 mps 763 mmHg 42%
    09:00 -6°C° 0 mm 7 mps 763 mmHg 40%
    10:00 -4°C° 0 mm 7 mps 764 mmHg 37%
    11:00 -3°C° 0 mm 7 mps 764 mmHg 36%
    12:00 -2°C° 0 mm 7 mps 763 mmHg 34%
    13:00 -1°C° 0 mm 7 mps 763 mmHg 32%
    14:00 -1°C° 0 mm 7 mps 763 mmHg 33%
    15:00 -1°C° 0 mm 7 mps 763 mmHg 34%
    16:00 -1°C° 0 mm 7 mps 763 mmHg 35%
    17:00 -2°C° 0 mm 6 mps 764 mmHg 40%
    18:00 -2°C° 0 mm 5 mps 764 mmHg 44%
    19:00 -3°C° 0 mm 4 mps 764 mmHg 48%
    20:00 -3°C° 0 mm 4 mps 765 mmHg 50%
    21:00 -4°C° 0 mm 3 mps 765 mmHg 51%
    22:00 -4°C° 0 mm 3 mps 765 mmHg 52%
    23:00 -4°C° 0 mm 3 mps 766 mmHg 54%

    Day after tomorrow, 24 February, Sunday

    Time Temperature Precipitation Wind Pressure Humidity
    00:00 -4°C° 0 mm 3 mps 766 mmHg 56%
    01:00 -4°C° 0 mm 2 mps 766 mmHg 57%
    02:00 -4°C° 0 mm 2 mps 766 mmHg 59%
    03:00 -4°C° 0 mm 2 mps 766 mmHg 60%
    04:00 -4°C° 0 mm 2 mps 765 mmHg 62%
    05:00 -4°C° 0 mm 2 mps 766 mmHg 63%
    06:00 -4°C° 0 mm 2 mps 766 mmHg 63%
    07:00 -5°C° 0 mm 2 mps 766 mmHg 64%
    08:00 -3°C° 0 mm 2 mps 766 mmHg 57%
    09:00 -2°C° 0 mm 2 mps 766 mmHg 49%
    10:00 0°C° 0 mm 3 mps 767 mmHg 42%
    11:00 +1°C° 0 mm 3 mps 766 mmHg 40%
    12:00 +1°C° 0 mm 3 mps 766 mmHg 38%
    13:00 +2°C° 0 mm 3 mps 765 mmHg 35%
    14:00 +2°C° 0 mm 3 mps 765 mmHg 37%
    15:00 +2°C° 0 mm 3 mps 765 mmHg 39%
    16:00 +2°C° 0 mm 3 mps 765 mmHg 41%
    17:00 +2°C° 0 mm 2 mps 765 mmHg 46%
    18:00 -1°C° 0 mm 2 mps 766 mmHg 52%
    19:00 0°C° 0 mm 1 mps 766 mmHg 57%
    20:00 0°C° 0 mm 1 mps 766 mmHg 58%
    21:00 -1°C° 0 mm 1 mps 766 mmHg 59%
    22:00 -2°C° 0 mm 0 mps 766 mmHg 59%
    23:00 -2°C° 0 mm 0 mps 766 mmHg 60%

    25 February, Monday

    Time Temperature Precipitation Wind Pressure Humidity
    00:00 -2°C° 0 mm 0 mps 766 mmHg 60%
    01:00 -2°C° 0 mm 0 mps 766 mmHg 60%
    02:00 -2°C° 0 mm 0 mps 766 mmHg 59%
    03:00 -2°C° 0 mm 0 mps 766 mmHg 59%
    04:00 -2°C° 0 mm 0 mps 766 mmHg 59%
    05:00 -2°C° 0 mm 0 mps 766 mmHg 58%
    06:00 -2°C° 0 mm 0 mps 766 mmHg 58%
    07:00 -2°C° 0 mm 0 mps 766 mmHg 57%
    08:00 +1°C° 0 mm 1 mps 766 mmHg 51%
    09:00 +3°C° 0 mm 1 mps 766 mmHg 44%
    10:00 +4°C° 0 mm 1 mps 765 mmHg 38%
    11:00 +5°C° 0 mm 1 mps 765 mmHg 38%
    12:00 +6°C° 0 mm 1 mps 764 mmHg 37%
    13:00 +7°C° 0 mm 1 mps 764 mmHg 36%
    14:00 +8°C° 0 mm 1 mps 763 mmHg 38%
    15:00 +8°C° 0 mm 1 mps 763 mmHg 39%
    16:00 +8°C° 0 mm 1 mps 762 mmHg 40%
    17:00 +6°C° 0 mm 1 mps 762 mmHg 45%
    18:00 +5°C° 0 mm 1 mps 762 mmHg 50%
    19:00 +4°C° 0 mm 1 mps 762 mmHg 55%
    20:00 +3°C° 0 mm 1 mps 762 mmHg 56%
    21:00 +3°C° 0 mm 1 mps 762 mmHg 58%
    22:00 +3°C° 0 mm 1 mps 762 mmHg 60%
    23:00 +2°C° 0 mm 1 mps 762 mmHg 61%

    26 February, Tuesday

    Time Temperature Precipitation Wind Pressure Humidity
    00:00 +2°C° 0 mm 1 mps 761 mmHg 62%
    01:00 +2°C° 0 mm 1 mps 761 mmHg 63%
    02:00 +2°C° 0 mm 1 mps 761 mmHg 64%
    03:00 +2°C° 0 mm 1 mps 760 mmHg 65%
    04:00 +1°C° 0 mm 1 mps 760 mmHg 66%
    05:00 +1°C° 0 mm 1 mps 760 mmHg 67%
    06:00 +1°C° 0 mm 1 mps 760 mmHg 68%
    07:00 +1°C° 0 mm 1 mps 760 mmHg 69%
    08:00 +3°C° 0 mm 1 mps 760 mmHg 64%
    09:00 +5°C° 0 mm 1 mps 760 mmHg 58%
    10:00 +7°C° 0 mm 1 mps 760 mmHg 53%
    11:00 +7°C° 0 mm 2 mps 759 mmHg 52%
    12:00 +9°C° 0 mm 2 mps 759 mmHg 51%
    13:00 +10°C° 0 mm 3 mps 758 mmHg 49%
    14:00 +10°C° 0 mm 3 mps 758 mmHg 52%
    15:00 +10°C° 0 mm 3 mps 757 mmHg 54%
    16:00 +10°C° 0 mm 3 mps 756 mmHg 56%
    17:00 +9°C° 0 mm 3 mps 756 mmHg 61%
    18:00 +8°C° 0 mm 3 mps 756 mmHg 67%
    19:00 +7°C° 0 mm 3 mps 756 mmHg 72%
    20:00 +7°C° 0.1 mm 3 mps 756 mmHg 74%
    21:00 +7°C° 0.1 mm 3 mps 756 mmHg 75%
    22:00 +7°C° 0.1 mm 3 mps 756 mmHg 76%
    23:00 +7°C° 0 mm 3 mps 756 mmHg 78%

    27 February, Wednesday

    Time Temperature Precipitation Wind Pressure Humidity
    00:00 +6°C° 0 mm 2 mps 756 mmHg 80%
    01:00 +5°C° 0 mm 2 mps 756 mmHg 83%
    02:00 +5°C° 0 mm 2 mps 756 mmHg 83%
    03:00 +4°C° 0 mm 2 mps 756 mmHg 83%
    04:00 +4°C° 0 mm 1 mps 756 mmHg 83%
    05:00 +4°C° 0 mm 1 mps 756 mmHg 83%
    06:00 +4°C° 0 mm 1 mps 757 mmHg 83%
    07:00 +3°C° 0 mm 1 mps 757 mmHg 84%
    08:00 +4°C° 0 mm 2 mps 757 mmHg 76%
    09:00 +6°C° 0 mm 2 mps 757 mmHg 67%
    10:00 +7°C° 0 mm 3 mps 758 mmHg 59%
    11:00 +8°C° 0 mm 3 mps 757 mmHg 54%
    12:00 +9°C° 0 mm 3 mps 757 mmHg 49%
    13:00 +10°C° 0 mm 3 mps 757 mmHg 44%
    14:00 +11°C° 0 mm 3 mps 757 mmHg 42%
    15:00 +11°C° 0 mm 3 mps 756 mmHg 40%
    16:00 +11°C° 0 mm 3 mps 756 mmHg 39%
    17:00 +9°C° 0 mm 3 mps 756 mmHg 44%
    18:00 +8°C° 0 mm 2 mps 757 mmHg 49%
    19:00 +7°C° 0 mm 1 mps 757 mmHg 54%
    20:00 +7°C° 0 mm 1 mps 757 mmHg 55%
    21:00 +5°C° 0 mm 0 mps 757 mmHg 57%
    22:00 +4°C° 0 mm 0 mps 757 mmHg 59%
    23:00 +4°C° 0 mm 0 mps 757 mmHg 60%
    Show more